Location: Behringen
(51.0224°N, 10.5106°E)
Time: 10:50:25
(UTC+00:00)

Daily predictions for brighter satellites

Satellite Brightness Start Highest point End
(mag) Time Altitude Azimuth Time Altitude Azimuth Time Altitude Azimuth
Cosmos 1356 Rocket 4.2 18:02:03 10° N 18:05:53 33° ENE 18:09:42 10° SE
Cosmos 1674 2.5 18:03:13 10° N 18:06:30 53° ENE 18:09:45 10° SSE
Lacrosse 4 Rocket 2.4 18:02:54 10° NW 18:07:09 51° WSW 18:11:19 10° SSE
NOSS 2-1 (D) 3.6 18:06:08 10° NW 18:09:46 77° SW 18:14:44 10° SE
Meteor 1-18 Rocket 4.5 18:04:23 10° NNW 18:10:21 85° W 18:16:12 10° S
BREEZE-M DEB (TANK) 3.2 18:08:07 10° WSW 18:10:34 68° S 18:15:33 10° E
Cosmos 1725 Rocket 4.4 18:05:13 10° SSW 18:11:22 72° WNW 18:17:35 10° N
SJ-6B 2.6 18:08:28 10° SSE 18:12:02 62° ENE 18:15:36 10° N
SeaSat 1 2.9 18:08:18 10° NNE 18:13:13 69° NW 18:18:05 10° SW
Iridium 4 Rocket 2.9 18:09:25 10° N 18:13:36 70° E 18:17:44 10° S
Meteor 1-4 Rocket 2.1 18:11:27 10° N 18:14:01 43° ENE 18:16:35 10° SSE
Cosmos 1151 Rocket 3.9 18:10:14 10° NNW 18:14:24 53° W 18:18:32 10° S
Cosmos 2333 Rocket 3.3 18:08:52 10° SW 18:14:29 51° NW 18:20:08 10° NNE
CARTOSAT-1 4.2 18:11:16 10° SE 18:15:10 36° ENE 18:19:04 10° N
SL-16 R/B 4.2 18:10:35 10° WSW 18:15:32 30° NW 18:20:31 10° NNE
Cosmos 1340 2.6 18:12:55 10° SSW 18:16:09 73° WNW 18:19:26 10° N
ATLAS CENTAUR R/B 2.9 18:14:43 10° SE 18:16:11 12° ESE 18:17:42 10° E
Cosmos 2369 Rocket 4.0 18:14:41 10° NNW 18:18:37 18° NNE 18:22:31 10° ENE
Cosmos 1980 4.5 18:16:57 10° SSE 18:21:46 29° ESE 18:26:36 10° NE
ARGOS Delta rocket 3.9 18:17:04 10° SSE 18:22:01 62° ENE 18:26:43 10° N
Cosmos 1733 4.2 18:22:45 10° SE 18:25:26 21° E 18:28:08 10° NE
Cosmos 841 Rocket 4.3 18:21:34 10° SW 18:26:39 55° WNW 18:31:44 10° NNE
Cosmos 1943 Rocket 2.4 18:21:32 10° NNW 18:26:58 54° NE 18:32:22 10° SE
NOSS 0 Rocket 4.2 18:21:59 10° S 18:27:49 44° ESE 18:33:42 10° NE
USA 276 2.5 18:25:25 10° W 18:28:12 44° SSW 18:30:24 13° SE
Nadezhda 4 Rocket 4.4 18:23:36 10° N 18:29:35 44° ENE 18:35:34 10° SE
Cosmos 1400 Rocket 3.1 18:26:55 10° NNW 18:30:43 64° W 18:34:26 10° S
ACS3 Solar Sail 2.4 18:25:26 10° SE 18:31:19 40° ENE 18:37:13 10° N
Cosmos 2322 3.7 18:27:23 10° SSW 18:33:01 85° ESE 18:38:44 10° NNE
CSL-04 Debris 4.4 18:27:53 10° SE 18:33:11 54° ENE 18:38:32 10° N
Sich 1 4.5 18:30:57 11° ESE 18:33:28 18° E 18:36:22 10° NE
BlueWalker 3 3.5 18:30:48 10° W 18:34:01 28° SW 18:37:15 10° SSE
Cosmos 2233 Rocket 4.3 18:28:02 10° SSW 18:34:09 72° WNW 18:40:21 10° N
Cosmos 1726 2.6 18:33:55 10° SSW 18:36:36 45° WNW 18:39:19 10° N
Resurs 1-3 4.1 18:32:45 10° S 18:37:02 62° WSW 18:41:21 10° NNW
Terra 3.7 18:35:11 11° E 18:37:29 15° NE 18:40:01 10° NNE
Cosmos 1513 Rocket 4.4 18:36:15 10° S 18:42:12 61° E 18:48:13 10° NNE
Cosmos 1315 Rocket 3.4 18:42:48 10° N 18:46:33 37° ENE 18:49:14 17° SE
Cosmos 1805 4.5 18:47:21 18° ESE 18:47:58 19° E 18:50:37 10° NE
Meteor PRIRODA 4.5 18:46:36 10° S 18:49:48 45° W 18:52:59 10° NNW
Cosmos 1464 Rocket 4.1 18:43:59 10° SSE 18:50:06 55° E 18:56:19 10° NNE
Cosmos 1125 Rocket 3.5 18:45:25 10° NNW 18:50:38 71° ENE 18:55:24 12° SSE
ATLAS 2AS CENTAUR R/B 4.2 18:45:13 10° W 18:51:37 34° NNW 18:57:48 10° NE
Cosmos 1842 3.3 18:48:02 10° NNW 18:51:39 69° W 18:55:14 10° S
SL-16 R/B 3.7 18:53:32 15° E 18:53:32 15° E 18:56:14 10° ENE
USA 59 Rocket 1.3 18:50:21 10° WNW 18:53:59 38° SW 18:58:49 10° SSE
Cosmos 1536 2.7 18:51:03 10° S 18:54:47 57° E 18:58:34 10° NNE
Okean 3 Rocket 3.5 18:50:52 10° S 18:55:17 64° E 18:59:41 10° NNE
Cosmos 1707 2.6 18:51:57 10° NNW 18:55:31 75° W 18:59:02 10° S
Cosmos 1515 Rocket 3.4 18:51:25 10° N 18:55:46 78° E 19:00:07 10° SSE
COSMOS 2428 2.9 18:51:08 10° SSW 18:56:52 81° WNW 19:02:38 10° NNE
Okean O Rocket 1.7 18:57:42 15° SSE 19:01:17 58° ENE 19:05:39 10° N
Feng Yun 1-1 Rocket 4.4 18:56:30 10° SSE 19:02:18 86° ENE 19:08:15 10° NNW
Cosmos 1818 4.3 18:56:56 10° WSW 19:02:18 55° NW 19:07:44 10° NE
SL-14 R/B 4.0 19:00:51 10° N 19:04:18 32° ENE 19:05:27 26° ESE
Cosmos 2278 Rocket 2.7 19:01:02 10° NW 19:06:37 61° WSW 19:12:11 10° SSE
Meteor 1-13 Rocket 4.3 19:03:08 10° NNW 19:09:03 82° ENE 19:14:49 10° SSE
USA 306 2.4 19:05:55 10° WSW 19:09:08 78° NNW 19:11:32 20° ENE
CZ-4 R/B 2.5 19:06:42 10° S 19:10:21 43° W 19:14:06 10° NNW
Meteor 2-9 Rocket 4.2 19:06:06 10° S 19:11:16 53° E 19:16:35 10° NNE
PSLV R/B 3.8 19:09:57 30° SE 19:11:19 47° ENE 19:14:44 10° N
Cosmos 2034 Rocket 4.1 19:06:22 10° SSE 19:12:22 55° E 19:18:22 10° NNE
CZ-4B R/B 3.3 19:08:16 10° S 19:13:43 75° WSW 19:19:06 10° NNW
Cosmos 1500 Rocket 3.8 19:10:44 15° SSE 19:14:05 45° E 19:18:15 10° NNE
Helios 1A 3.8 19:11:45 10° N 19:15:43 52° WNW 19:19:40 10° SW
Resurs 01 Rocket 2.1 19:11:28 10° S 19:15:50 61° WSW 19:20:14 10° NNW
USA 290 4.4 19:14:03 10° NW 19:16:51 26° WSW 19:19:38 10° SSW
Cosmos 2228 Rocket 4.2 19:13:01 10° N 19:16:58 27° ENE 19:17:55 25° E
NOSS 3-3 (C) 4.2 19:12:02 10° S 19:17:00 38° ESE 19:22:44 10° NE
MetOp-B 4.4 19:14:53 24° SE 19:17:53 49° ENE 19:23:03 10° N
Meteor 1-23 Rocket 4.3 19:12:21 10° N 19:17:57 62° ENE 19:21:41 21° SSE
Meteor 2-10 4.1 19:12:34 10° S 19:18:09 75° E 19:23:53 10° NNE
Cosmos 1743 Rocket 3.9 19:19:19 29° SE 19:20:48 40° E 19:24:53 10° NNE
USA 186 3.2 19:18:10 10° S 19:21:12 38° W 19:24:16 10° NNW
MOS 1-B 4.4 19:17:46 10° SSE 19:23:35 80° WSW 19:29:24 10° NNW
SPOT 5 2.8 19:22:14 30° SE 19:24:18 55° ENE 19:28:39 10° N
Okean-O 2.7 19:23:05 30° SE 19:25:03 60° ENE 19:29:25 10° N
USA 267 3.7 19:21:02 16° E 19:26:16 56° N 19:32:37 10° WNW
Cosmos 2208 Rocket 4.0 19:22:10 10° S 19:27:19 57° ESE 19:32:34 10° NNE
Cosmos 1408 Rocket 3.4 19:24:39 10° S 19:29:02 82° E 19:33:28 10° NNE
ISS -3.5 19:27:38 10° SW 19:30:43 49° SSE 19:30:43 49° SSE
NOSS 3-3 (A) 3.9 19:25:53 10° SSW 19:31:04 50° ESE 19:37:09 10° NE
MOS 1 4.2 19:31:48 24° SSE 19:35:23 78° ENE 19:41:06 10° NNW
Cosmos 2237 Rocket 2.1 19:30:12 10° SSW 19:35:50 88° ESE 19:41:31 10° NNE
CSL-04 Rocket 4.3 19:32:21 10° S 19:37:35 54° W 19:42:49 10° NNW
Aureole 3 Rocket 3.6 19:31:31 10° S 19:38:12 72° E 19:42:56 10° NNE
Cosmos 1607 4.4 19:33:06 10° S 19:38:55 37° ESE 19:44:44 10° NE
Cosmos 2219 Rocket 4.4 19:36:26 10° W 19:41:09 26° NW 19:45:52 10° NNE
Cosmos 2297 3.9 19:39:40 10° NNW 19:45:13 54° NE 19:47:04 38° ESE
Meteor 1-11 Rocket 3.9 19:41:39 10° SSW 19:47:15 73° WNW 19:52:49 10° N
MOS 1 Rocket 3.5 19:45:38 38° SE 19:47:35 71° ENE 19:52:53 10° N
Spot 2 Rocket 3.8 19:50:59 42° E 19:51:53 46° ENE 19:56:42 10° N
Cosmos 158 Rocket 3.8 19:47:48 10° SSW 19:52:41 80° WNW 19:57:35 10° NNE
ATLAS CENTAUR R/B 1.0 19:49:20 10° SW 19:52:55 85° NW 19:54:53 27° NE
NOSS 3-4 (A) 3.8 19:47:18 10° NW 19:53:55 69° NE 19:57:12 36° ESE
NOSS 3-4 (C) 3.8 19:47:25 10° NW 19:54:01 69° NE 19:57:18 36° ESE
Cosmos 1805 Rocket 3.5 19:52:47 26° SSW 19:55:10 83° W 19:59:33 10° N
Cosmos 2369 Rocket 2.3 19:58:11 10° NNW 20:03:52 60° NE 20:05:12 48° ESE
SL-24 R/B 4.4 20:01:56 36° S 20:03:56 80° W 20:08:46 10° N
Cosmos 1633 Rocket 4.3 20:06:10 28° NE 20:06:10 28° NE 20:08:41 10° NNE
Cosmos 1980 4.3 19:59:55 10° SW 20:05:31 58° NW 20:11:09 10° NNE
Cosmos 1862 Rocket 3.6 20:02:14 10° N 20:06:32 60° ENE 20:06:32 60° ENE
Meteor 1-21 4.3 20:02:19 10° NNW 20:08:06 83° W 20:10:23 39° S
Sich 1 3.6 20:07:33 19° SSW 20:10:25 55° WNW 20:14:41 10° N
Cosmos 1943 Rocket 3.7 20:05:41 10° NW 20:10:25 30° WSW 20:14:05 15° SSW
Cosmos 1707 Rocket 3.4 20:06:33 10° N 20:11:02 76° E 20:11:05 76° E
DELTA 2 DEB (DPAF) 3.9 20:07:04 10° NNE 20:11:16 84° WNW 20:11:47 67° SSW
Meteor 1-16 4.5 20:11:24 52° SSE 20:12:41 71° E 20:18:07 10° NNE
Terra 1.6 20:13:52 72° SE 20:14:20 82° ENE 20:19:04 10° NNW
ERS-1 Rocket 2.9 20:14:04 58° S 20:15:06 86° WSW 20:20:11 10° NNW
ACS3 Solar Sail 2.8 20:09:35 12° SSW 20:15:17 47° W 20:21:28 10° NNW
Cosmos 1666 Rocket 4.2 20:18:28 42° NE 20:18:28 42° NE 20:21:34 10° NNE
Cosmos 1975 3.0 20:18:59 66° NW 20:18:59 66° NW 20:22:32 10° N
Cosmos 2026 Rocket 4.4 20:16:23 10° NNW 20:22:30 59° W 20:25:51 27° SSW
Cosmos 1805 4.5 20:21:37 29° WSW 20:22:45 37° WNW 20:26:11 10° N
Cosmos 1092 Rocket 4.4 20:16:46 10° NNW 20:22:59 61° W 20:26:29 27° SSW
Cosmos 2266 Rocket 4.2 20:18:24 10° N 20:24:29 50° ENE 20:25:07 48° E
Ariane Rocket 2.8 20:24:21 71° E 20:24:37 73° ENE 20:29:41 10° NNW
Okean 3 3.8 20:29:14 10° NNW 20:32:44 61° NNW 20:32:44 61° NNW
SL-16 R/B 2.0 20:35:17 63° SSW 20:36:14 83° ESE 20:41:56 10° NNE
Okean O Rocket 4.0 20:35:02 11° SW 20:37:53 19° W 20:41:04 10° NW
Cosmos 1634 Rocket 4.2 20:36:32 28° SSW 20:40:03 70° WNW 20:46:25 10° N
Cosmos 1656 Rocket 3.9 20:35:01 10° NW 20:40:36 61° WSW 20:41:19 56° SSW
USA 306 4.3 20:38:32 10° WNW 20:40:35 31° WNW 20:40:35 31° WNW
ATLAS 2AS CENTAUR R/B 4.2 20:38:23 10° NW 20:44:27 30° N 20:49:08 15° ENE
Okean 2 4.4 20:42:07 10° NNW 20:44:49 41° NNW 20:44:49 41° NNW
SL-08 ROCKET BODY 4.3 20:40:21 10° N 20:46:33 69° ENE 20:46:46 68° E
Cosmos 773 Rocket 4.5 20:45:39 26° SW 20:48:35 60° WNW 20:53:51 10° NNE
Okean 1-7 3.9 20:45:32 10° N 20:48:39 47° N 20:48:39 47° N
Cosmos 2263 4.1 20:46:06 10° NNW 20:51:52 86° WSW 20:51:55 86° SW
Cosmos 2228 Rocket 4.2 20:50:57 10° NNW 20:55:14 40° W 20:55:20 40° W
SPOT 3 Rocket 3.8 21:00:55 62° W 21:00:55 62° W 21:05:54 10° NNW
Cosmos 2142 Rocket 4.4 21:02:36 69° SW 21:03:18 79° WNW 21:09:29 10° N
ARIANE 5 R/B 4.5 21:08:15 23° NNE 21:08:15 23° NNE 21:10:18 10° N
NOSS 3-3 (C) 4.4 21:02:05 10° WSW 21:07:38 57° NW 21:14:17 10° NE
USA 267 3.1 21:08:22 74° ESE 21:09:02 86° NNE 21:15:37 10° WNW
Cosmos 1655 Rocket 4.0 21:04:26 10° N 21:10:37 70° ENE 21:10:37 70° ENE
Cosmos 2344 4.3 21:05:54 10° NW 21:13:27 53° NNE 21:17:16 35° E
Cosmos 724 4.4 21:15:31 69° WNW 21:15:52 71° NW 21:21:43 10° NE
Cosmos 2237 Rocket 4.3 21:16:07 10° W 21:20:39 24° NW 21:25:11 10° NNE
Meteor 2-5 Rocket 4.3 21:19:29 10° N 21:24:27 53° NE 21:24:27 53° NE
Cosmos 1607 4.3 21:19:31 10° SW 21:25:55 63° NW 21:32:20 10° NE
Meteor 1-24 Rocket 4.3 21:20:26 10° N 21:25:23 53° NNE 21:25:23 53° NNE
ATLAS CENTAUR R/B 3.9 21:28:08 10° WNW 21:35:08 - NNE 21:29:51 17° NW
Cosmos 2369 Rocket 3.7 21:42:44 10° NW 21:46:58 28° W 21:46:58 28° W
Terra 4.2 21:52:34 15° W 21:52:34 15° W 21:55:12 10° NW
Cosmos 1980 Rocket 4.1 22:05:34 10° NNW 22:09:42 21° NE 22:10:31 20° NE
USA 215 4.4 22:09:28 10° ENE 22:12:42 32° ENE 22:12:42 32° ENE
SL-16 R/B 4.1 22:17:00 13° W 22:21:01 26° NW 22:25:43 10° NNE
ATLAS 2AS CENTAUR R/B 3.1 22:30:00 10° NW 22:36:31 55° NNE 22:36:31 55° NNE
Cosmos 1943 4.4 22:41:44 38° NNW 22:41:44 38° NNW 22:46:13 10° NNE
Cosmos 1697 Rocket 3.9 22:48:46 10° NNW 22:52:28 38° N 22:52:28 38° N
Cosmos 2344 4.1 23:20:09 10° NW 23:27:14 59° W 23:27:14 59° W
SL-16 R/B 4.3 23:30:40 10° NNW 23:35:03 22° NE 23:37:43 16° ENE
CZ-2C R/B 4.3 23:46:19 26° NE 23:46:19 26° NE 23:50:07 10° N
